Date String (YYYY-MM-DD hh:mm:ss) UTC,Instrument flags,absolute air pressure of the measurement (hPa),sample flow rate (lpm),inlet stack bypass flow (lpm),air temperature of the measurement (°C),ambient temperature measured by the external sensor (°C),aerosol sample conditioner tube jacket temperature (°C),OPC LED temperature (°C),internal box temperature (°C),relative humidity of the measurement (%),span deviation,mass concentration of particles derived from Lorenz-Mie calculation of OPC scattering (μg/m³),mass concentration of particles derived from Lorenz-Mie calculation of OPC scattering (μg/m³),mass concentration of particles derived from Lorenz-Mie calculation of OPC scattering (μg/m³)
DateTimeUTC,F1_M11,P_M11,Q1_M11,Q2_M11,T1_M11,T2_M11,T3_M11,T4_M11,T5_M11,U1_M11,ZSPAN_M11,X2_M11,X0_M11,X1_M11
2023-12-23 17:00:00,SystemResetWarning,0819.9,5.01,000.00,023.5,022.8,000.0,031.8,025.0,13.9,0000.0,0004.55,0010.75,0004.13
2023-12-23 17:01:00,SystemResetWarning,0819.9,5.00,000.00,023.5,022.8,000.0,031.8,025.0,14.2,0000.0,0004.56,0010.90,0004.12
2023-12-23 17:02:00,SystemResetWarning,0820.3,5.00,000.00,023.5,022.8,000.0,031.8,025.0,14.5,0000.0,0004.56,0010.87,0004.13
2023-12-23 17:03:00,SystemResetWarning,0819.9,5.00,000.00,023.5,022.8,000.0,031.8,025.0,14.5,0000.0,0004.53,0010.78,0004.12
2023-12-23 17:04:00,SystemResetWarning,0819.8,5.00,000.00,023.5,022.8,000.0,031.8,025.0,14.2,0000.0,0004.45,0010.11,0004.07
2023-12-23 17:05:00,SystemResetWarning,0819.8,5.00,000.00,023.6,022.8,000.0,031.8,025.0,14.0,0000.0,0004.39,0009.61,0004.05
2023-12-23 17:06:00,SystemResetWarning,0819.8,5.00,000.00,023.6,022.8,000.0,031.8,025.0,14.0,0000.0,0004.36,0009.36,0004.03
2023-12-23 17:07:00,SystemResetWarning,0820.0,5.00,000.00,023.6,022.9,000.0,031.8,025.1,14.2,0000.0,0004.36,0009.33,0004.01
2023-12-23 17:08:00,SystemResetWarning,0820.0,5.00,000.00,023.6,022.9,000.0,031.9,025.1,14.1,0000.0,0004.36,0009.39,0004.01
2023-12-23 17:09:00,SystemResetWarning,0820.2,5.00,000.00,023.6,022.9,000.0,031.9,025.1,14.0,0000.0,0004.36,0009.38,0003.99
2023-12-23 17:10:00,SystemResetWarning,0820.0,5.00,000.00,023.6,022.9,000.0,031.9,025.1,14.1,0000.0,0004.35,0009.10,0003.98
2023-12-23 17:11:00,SystemResetWarning,0820.0,5.01,000.00,023.6,022.9,000.0,031.9,025.1,14.3,0000.0,0004.35,0008.96,0003.95
2023-12-23 17:12:00,SystemResetWarning,0820.0,5.00,000.00,023.7,022.9,000.0,031.9,025.1,14.3,0000.0,0004.34,0008.75,0003.95
2023-12-23 17:13:00,SystemResetWarning,0820.1,5.00,000.00,023.7,022.9,000.0,031.9,025.1,14.4,0000.0,0004.33,0008.13,0003.94
2023-12-23 17:14:00,SystemResetWarning,0820.0,5.00,000.00,023.7,023.0,000.0,031.9,025.1,14.4,0000.0,0004.33,0007.89,0003.94
2023-12-23 17:15:00,SystemResetWarning,0820.0,5.00,000.00,023.7,023.0,000.0,031.9,025.1,14.2,0000.0,0004.36,0007.98,0003.95
2023-12-23 17:16:00,SystemResetWarning,0820.1,5.00,000.00,023.7,023.0,000.0,031.9,025.1,14.0,0000.0,0004.37,0008.02,0003.95
2023-12-23 17:17:00,SystemResetWarning,0820.1,5.00,000.00,023.7,023.0,000.0,031.9,025.1,13.8,0000.0,0004.37,0008.29,0003.95
2023-12-23 17:18:00,SystemResetWarning,0820.1,5.00,000.00,023.7,023.0,000.0,032.0,025.1,13.7,0000.0,0004.36,0009.04,0003.97
2023-12-23 17:19:00,SystemResetWarning,0820.1,5.00,000.00,023.7,023.0,000.0,032.0,025.1,14.0,0000.0,0004.39,0009.12,0003.98
2023-12-23 17:20:00,SystemResetWarning,0820.1,5.00,000.00,023.7,023.0,000.0,032.0,025.1,14.3,0000.0,0004.37,0009.05,0003.99
2023-12-23 17:21:00,SystemResetWarning,0820.1,5.01,000.00,023.7,023.0,000.0,032.0,025.1,14.3,0000.0,0004.38,0009.06,0004.01
2023-12-23 17:22:00,SystemResetWarning,0820.1,5.00,000.00,023.7,023.0,000.0,032.0,025.1,14.3,0000.0,0004.37,0010.22,0004.03
2023-12-23 17:23:00,SystemResetWarning,0820.0,5.00,000.00,023.7,023.0,000.0,032.0,025.1,14.4,0000.0,0004.40,0011.10,0004.05
2023-12-23 17:24:00,SystemResetWarning,0820.0,5.00,000.00,023.7,023.0,000.0,032.0,025.1,14.6,0000.0,0004.38,0011.20,0004.03
2023-12-23 17:25:00,SystemResetWarning,0819.9,4.99,000.00,023.7,023.0,000.0,032.0,025.1,14.6,0000.0,0004.33,0011.09,0004.00
2023-12-23 17:26:00,SystemResetWarning,0819.9,5.00,000.00,023.7,023.0,000.0,032.0,025.1,14.2,0000.0,0004.31,0011.70,0003.99
2023-12-23 17:27:00,SystemResetWarning,0819.9,5.00,000.00,023.7,023.0,000.0,032.0,025.1,14.2,0000.0,0004.32,0012.13,0004.00
2023-12-23 17:28:00,SystemResetWarning,0819.9,5.01,000.00,023.7,023.0,000.0,032.0,025.1,14.1,0000.0,0004.32,0012.02,0004.00
2023-12-23 17:29:00,SystemResetWarning,0819.8,5.01,000.00,023.7,023.0,000.0,032.0,025.1,14.0,0000.0,0004.28,0011.90,0003.98
2023-12-23 17:30:00,SystemResetWarning,0820.1,5.00,000.00,023.7,023.0,000.0,032.0,025.1,13.9,0000.0,0004.25,0011.80,0003.97
2023-12-23 17:31:00,SystemResetWarning,0820.3,4.99,000.00,023.7,023.0,000.0,032.0,025.1,13.8,0000.0,0004.26,0012.02,0003.96
2023-12-23 17:32:00,SystemResetWarning,0820.0,5.00,000.00,023.7,023.0,000.0,032.0,025.1,14.0,0000.0,0004.24,0011.59,0003.94
2023-12-23 17:33:00,SystemResetWarning,0819.8,5.00,000.00,023.7,023.1,000.0,032.0,025.1,14.1,0000.0,0004.25,0010.57,0003.92
2023-12-23 17:34:00,SystemResetWarning,0819.7,5.00,000.00,023.8,023.1,000.0,032.0,025.2,14.1,0000.0,0004.22,0009.47,0003.91
2023-12-23 17:35:00,SystemResetWarning,0819.9,5.00,000.00,023.8,023.1,000.0,032.0,025.2,14.1,0000.0,0004.24,0009.48,0003.90
2023-12-23 17:36:00,SystemResetWarning,0820.0,5.00,000.00,023.8,023.1,000.0,032.1,025.2,14.0,0000.0,0004.29,0009.66,0003.92
2023-12-23 17:37:00,SystemResetWarning,0819.5,5.01,000.00,023.8,023.1,000.0,032.1,025.2,13.9,0000.0,0004.32,0009.49,0003.91
2023-12-23 17:38:00,SystemResetWarning,0819.5,5.00,000.00,023.8,023.1,000.0,032.1,025.2,13.9,0000.0,0004.30,0009.25,0003.90
2023-12-23 17:39:00,SystemResetWarning,0819.5,5.00,000.00,023.8,023.1,000.0,032.1,025.2,13.5,0000.0,0004.29,0009.11,0003.89
2023-12-23 17:40:00,SystemResetWarning,0819.5,5.00,000.00,023.8,023.1,000.0,032.1,025.2,13.4,0000.0,0004.32,0008.80,0003.89
2023-12-23 17:41:00,SystemResetWarning,0819.5,5.00,000.00,023.8,023.1,000.0,032.1,025.2,13.5,0000.0,0004.31,0009.33,0003.87
2023-12-23 17:42:00,SystemResetWarning,0819.5,5.00,000.00,023.8,023.1,000.0,032.1,025.2,13.6,0000.0,0004.29,0009.48,0003.84
2023-12-23 17:43:00,SystemResetWarning,0819.5,5.00,000.00,023.8,023.1,000.0,032.1,025.3,13.8,0000.0,0004.31,0010.11,0003.83
2023-12-23 17:44:00,SystemResetWarning,0819.4,5.00,000.00,023.8,023.1,000.0,032.1,025.3,14.0,0000.0,0004.27,0010.15,0003.81
2023-12-23 17:45:00,SystemResetWarning,0819.4,5.00,000.00,023.8,023.1,000.0,032.1,025.3,13.9,0000.0,0004.25,0010.10,0003.79
2023-12-23 17:46:00,SystemResetWarning,0819.3,4.99,000.00,023.8,023.1,000.0,032.1,025.3,14.0,0000.0,0004.22,0009.91,0003.77
2023-12-23 17:47:00,SystemResetWarning,0819.3,5.00,000.00,023.9,023.1,000.0,032.1,025.3,14.1,0000.0,0004.17,0009.80,0003.74
2023-12-23 17:48:00,SystemResetWarning,0819.2,5.00,000.00,023.9,023.2,000.0,032.1,025.3,14.1,0000.0,0004.12,0009.96,0003.72
2023-12-23 17:49:00,SystemResetWarning,0819.1,5.00,000.00,023.9,023.2,000.0,032.1,025.3,14.0,0000.0,0004.13,0009.73,0003.71
2023-12-23 17:50:00,SystemResetWarning,0819.1,5.00,000.00,023.9,023.2,000.0,032.1,025.3,14.0,0000.0,0004.13,0009.71,0003.69
2023-12-23 17:51:00,SystemResetWarning,0819.1,5.01,000.00,023.9,023.2,000.0,032.1,025.3,14.0,0000.0,0004.10,0009.29,0003.69
2023-12-23 17:52:00,SystemResetWarning,0819.2,5.02,000.00,023.9,023.2,000.0,032.2,025.3,14.0,0000.0,0004.07,0008.56,0003.68
2023-12-23 17:53:00,SystemResetWarning,0819.2,5.00,000.00,023.9,023.2,000.0,032.2,025.4,13.9,0000.0,0004.04,0008.04,0003.68
2023-12-23 17:54:00,SystemResetWarning,0819.3,4.98,000.00,023.9,023.2,000.0,032.2,025.4,13.9,0000.0,0004.02,0007.42,0003.68
2023-12-23 17:55:00,SystemResetWarning,0819.3,5.00,000.00,023.9,023.2,000.0,032.2,025.5,13.9,0000.0,0004.04,0007.33,0003.69
2023-12-23 17:56:00,SystemResetWarning,0819.3,5.01,000.00,023.9,023.2,000.0,032.2,025.4,13.7,0000.0,0004.07,0007.51,0003.70
2023-12-23 17:57:00,SystemResetWarning,0819.3,5.00,000.00,024.0,023.2,000.0,032.2,025.4,13.9,0000.0,0004.09,0008.42,0003.72
2023-12-23 17:58:00,SystemResetWarning,0819.4,5.00,000.00,024.0,023.2,000.0,032.2,025.4,13.9,0000.0,0004.11,0009.31,0003.75
2023-12-23 17:59:00,SystemResetWarning,0819.3,5.00,000.00,024.0,023.3,000.0,032.2,025.4,14.1,0000.0,0004.14,0009.29,0003.76
